sat.trackr.live / text

‹ back to catalog

STARLINK-34286

NORAD 65035 · 2025-161W

PAYLOAD ACTIVE UNKNOWN

§ Identity

Operator
Country
US
Launch date
2025-07-30
Launch site
AFWTR
Launch vehicle
Mass (kg)
RCS (m²)

Purposes: comms

External: N2YO · Heavens-Above · Gunter

§ Orbital elements

Epoch: 2026-09-20T21:53:06.205632Z

Period
93.85 min
Inclination
53.1565°
Eccentricity
0.0001386
Mean motion
15.34399741 rev/d
Perigee alt
461.8 km
Apogee alt
463.7 km
Semi-major
6,840.8 km
B*
5.3750e-4
RAAN
103.5552°
Arg perigee
117.3847°
Mean anomaly
242.7297°
Rev number
6,417

§ Raw data

STARLINK-342861 65035U 25161W   26263.91187738  .00017827  00000+0  53750-3 0  99942 65035  53.1565 103.5552 0001386 117.3847 242.7297 15.34399741 64173

JSON: /api/v1/satellites/65035 · /tle

For live sub-satellite position, see the globe view (requires WebGL).

§ Visibility from observer

Set your observer location to see the next 7 days of passes ≥ 10°. The values pass through the URL so the page stays shareable.

No JS? Fill the form by hand. The geolocation button needs JavaScript.